Location: Newark
(45.8411°N, 6.2144°E)
Time: 23:44:07
(UTC+00:00)

Envisat - Visible Passes

Search period start: 28 March 2020 00:00
Search period end: 07 April 2020 00:00
Orbit: 764 x 766 km, 98.1° (Epoch: 28 March)

Date Brightness Start Highest point End Pass type
(mag) Time Alt. Az. Time Alt. Az. Time Alt. Az.
28 Mar 6.0 18:31:41 10° SW 18:35:07 18° W 18:38:36 10° NW visible
30 Mar 6.6 19:00:25 10° W 19:00:58 10° W 19:01:31 10° W visible
02 Apr 6.3 18:47:07 10° WSW 18:49:30 13° W 18:51:52 10° WNW visible
04 Apr 6.7 04:37:16 10° ENE 04:38:41 11° E 04:40:06 10° ESE visible
05 Apr 6.0 18:34:50 10° SW 18:38:02 17° W 18:41:15 10° NW visible
